Content
SEND FEEDBACK

Daily
Averages
Monthly
Summary
United Kingdom

STORNOWAY, SCOTLAND


Home > Europe > United Kingdom > Scotland
Elevation: 43 feet     Latitude: 58 13N     Longitude: 006 19W

WEATHER
 
SELECT A DAY
Number of Records: 237,116;   Date Range: 7/1/96 - 7/29/14
 
SHARE

PRINT THIS DATA

[ ← Previous Day ]
WEATHER ALMANAC - FEBRUARY 22, 2013
[ Next Day → ]
[ °C ]   °F
Weather ElementAverageHighLow
Temperature34.5 °F41 °F (1:20 pm)23 °F (12:50 am)
Dewpoint28.8 °F35 °F (11:50 pm)19.4 °F (12:50 am)
Humidity79.1 %90 % (11:50 pm)57 % (11:50 am)
Barometer30.29 in30.33 in (6:20 pm)30.24 in (2:50 am)
Wind Speed4.8 mph12.7 mph (11:50 pm)
Weather ElementAverage
Visibility7.8 mi
Wind DirectionSW (223 °)

Weather ElementTotal
Precipitation---
Heating Degree Days33 (Base 65)
Averaged from 54 records on February 22, 2013
WEATHER CONDITIONS BREAKOUT
WIND DIRECTION BREAKOUT
WEATHER BY HOUR - FEBRUARY 22, 2013
[ °C ]   °F
Local TimeTemperatureDewpointHumidityBarometerVisibilityWind DirectionWind SpeedGust SpeedPrecipitationEventsConditions
12:50 AM23.0 °F19.4 °F86 %30.27 inCalmClear
1:20 AM23.0 °F19.4 °F86 %30.27 in6.2 miCalm
1:50 AM23.0 °F19.4 °F86 %30.27 in6.2 miCalmScattered Clouds
2:20 AM26.6 °F23.0 °F86 %30.27 in6.2 miCalmMostly Cloudy
2:50 AM28.4 °F23.0 °F80 %30.24 in6.2 miWSW (250°)5.8 mphOvercast
3:20 AM30.2 °F24.8 °F80 %30.24 in6.2 miCalmMostly Cloudy
3:50 AM30.2 °F26.6 °F86 %30.24 in6.2 miCalmOvercast
4:20 AM30.2 °F26.6 °F86 %30.24 in6.2 miCalmOvercast
4:50 AM30.2 °F26.6 °F86 %30.27 in6.2 miCalmMostly Cloudy
5:20 AM30.2 °F26.6 °F86 %30.27 in6.2 miWest (280°)5.8 mphMostly Cloudy
5:50 AM33.0 °F28.0 °F76 %30.27 in17.0 miWest (260°)4.6 mph
5:50 AM32.0 °F28.4 °F87 %30.27 in6.2 miWest (270°)2.3 mphMostly Cloudy
6:20 AM28.4 °F23.0 °F80 %30.27 in6.2 miCalmMostly Cloudy
6:50 AM30.2 °F26.6 °F86 %30.27 in6.2 miCalmMostly Cloudy
7:20 AM35.6 °F32.0 °F87 %30.27 in6.2 miWest (260°)3.5 mphMostly Cloudy
7:50 AM28.4 °F24.8 °F86 %30.30 in6.2 miWSW (250°)6.9 mphMostly Cloudy
8:20 AM32.0 °F28.4 °F87 %30.30 in6.2 miWNW (300°)2.3 mphMostly Cloudy
8:50 AM34.0 °F29.0 °F77 %30.30 in19.0 miWNW (290°)3.5 mphScattered Clouds
8:50 AM33.8 °F30.2 °F87 %30.30 in6.2 miCalmMostly Cloudy
9:20 AM33.8 °F28.4 °F81 %30.30 in6.2 miWest (280°)3.5 mphMostly Cloudy
9:50 AM35.6 °F30.2 °F81 %30.30 in6.2 miWest (260°)4.6 mphMostly Cloudy
10:20 AM35.6 °F30.2 °F81 %30.30 in6.2 miWSW (250°)5.8 mphMostly Cloudy
10:50 AM37.4 °F32.0 °F81 %30.30 in6.2 miWest (270°)4.6 mphMostly Cloudy
11:20 AM39.2 °F32.0 °F75 %30.30 in6.2 miWest (260°)5.8 mphMostly Cloudy
11:50 AM39.0 °F29.0 °F57 %30.32 in22.0 miWest (270°)5.8 mphMostly Cloudy
11:50 AM39.2 °F30.2 °F70 %30.30 in6.2 miWest (260°)3.5 mphMostly Cloudy
12:20 PM39.2 °F30.2 °F70 %30.30 in6.2 miWest (270°)4.6 mphMostly Cloudy
12:50 PM39.2 °F30.2 °F70 %30.30 in6.2 miWest (260°)5.8 mphMostly Cloudy
1:20 PM41.0 °F30.2 °F65 %30.30 in6.2 miWest (260°)4.6 mphMostly Cloudy
1:50 PM41.0 °F30.2 °F65 %30.30 in6.2 miWNW (290°)4.6 mphMostly Cloudy
2:20 PM39.2 °F30.2 °F70 %30.30 in6.2 miNW (310°)4.6 mphMostly Cloudy
2:50 PM40.0 °F30.0 °F57 %30.30 in25.0 miNW (310°)4.6 mphMostly Cloudy
2:50 PM39.2 °F30.2 °F70 %30.30 in6.2 miNW (320°)3.5 mphMostly Cloudy
3:20 PM37.4 °F30.2 °F75 %30.30 in6.2 miNW (320°)5.8 mphRainLight Rain Showers
3:50 PM35.6 °F28.4 °F75 %30.30 in6.2 miNW (310°)5.8 mphMostly Cloudy
4:20 PM37.4 °F30.2 °F75 %30.30 in6.2 miNW (310°)4.6 mphMostly Cloudy
4:50 PM37.4 °F30.2 °F75 %30.30 in6.2 miWNW (290°)4.6 mphMostly Cloudy
5:20 PM35.6 °F30.2 °F81 %30.30 in6.2 miWNW (290°)5.8 mphMostly Cloudy
5:50 PM37.0 °F30.0 °F69 %30.32 in25.0 miWest (280°)8.1 mphPartly Cloudy
5:50 PM39.2 °F33.8 °F81 %30.30 in6.2 miWest (270°)5.8 mphMostly Cloudy
6:20 PM33.8 °F28.4 °F81 %30.33 in6.2 miWest (280°)5.8 mphMostly Cloudy
6:50 PM39.2 °F33.8 °F81 %30.33 in6.2 miWest (280°)4.6 mphMostly Cloudy
7:20 PM35.6 °F30.2 °F81 %30.33 in6.2 miWest (270°)5.8 mphMostly Cloudy
7:50 PM33.8 °F26.6 °F75 %30.33 in6.2 miWest (270°)8.1 mphMostly Cloudy
8:20 PM35.6 °F28.4 °F75 %30.30 in6.2 miWest (260°)9.2 mphMostly Cloudy
8:50 PM36.0 °F31.0 °F74 %30.31 in18.0 miWest (260°)8.1 mphRainRain
8:50 PM32.0 °F26.6 °F80 %30.30 in6.2 miWest (260°)9.2 mphMostly Cloudy
9:20 PM37.4 °F32.0 °F81 %30.30 in6.2 miWNW (290°)6.9 mphMostly Cloudy
9:50 PM35.6 °F32.0 °F87 %30.30 in6.2 miWest (280°)8.1 mphMostly Cloudy
10:20 PM35.6 °F32.0 °F87 %30.30 in5.6 miWNW (290°)8.1 mphLight Drizzle
10:50 PM35.6 °F32.0 °F87 %30.30 in6.2 miWNW (300°)10.4 mphMostly Cloudy
11:20 PM35.6 °F32.0 °F87 %30.30 in6.2 miWNW (300°)10.4 mph
11:50 PM37.0 °F35.0 °F90 %30.30 in5.0 miWNW (300°)12.7 mphRainLight Rain Showers
11:50 PM37.4 °F32.0 °F81 %30.30 in4.3 miWNW (300°)10.4 mphRainLight Rain
Hourly data recorded from EGPO, located miles away from Stornoway, Scotland







STORIES FROM OUR PARTNERS